Regional Weather Roundup
Issued by NWS

Home | Current Version | Previous Version | Text Only | Print | Product List | Glossary Off
Versions: 1 2 3 4 5 6 7 8 9 10 11 12 13 14 15 16 17 18 19 20 21 22 23 24 25 26 27 28 29 30 31 32 33 34 35 36 37 38 39 40 41 42 43 44 45 46 47 48 49 50

000
ASUS43 KLOT 261108
RWRIL

ILLINOIS REGIONAL WEATHER ROUNDUP
NATIONAL WEATHER SERVICE CHICAGO/ROMEOVILLE IL
600 AM CDT SUN APR 26 2015

NOTE: "FAIR" INDICATES FEW OR NO CLOUDS BELOW 12,000 FEET WITH NO
SIGNIFICANT WEATHER AND/OR OBSTRUCTIONS TO VISIBILITY.

* THESE STATIONS ARE NOT UNDER NWS QUALITY CONTROL. THEY ALSO MAY NOT
  REPORT WEATHER SUCH AS PRECIPITATION OR FOG.

ILZ001-002-007-009-015-016-024-261200-
NORTHWEST ILLINOIS

CITY           SKY/WX    TMP DP  RH WIND       PRES   REMARKS
MOLINE         CLEAR     38  30  73 CALM      29.95R
STERLING*      CLEAR     36  25  64 N8        29.95R WCI  29
SAVANNA*       CLEAR     35  25  65 N8        29.96S WCI  29
$$

ILZ003-004-008-010-011-017-018-261200-
NORTH CENTRAL ILLINOIS

CITY           SKY/WX    TMP DP  RH WIND       PRES   REMARKS
ROCKFORD       MOCLDY    33  22  63 N8        29.98R WCI  26
FREEPORT*      CLEAR     32  24  72 CALM      29.98R
ROCHELLE*      CLEAR     33  27  77 N9        29.95R WCI  25
DE KALB*       CLEAR     32  27  83 N7        29.95R WCI  26
PERU*          CLEAR     35  30  82 N9        29.94R WCI  28
$$

ILZ005-006-012>014-019>023-261200-
NORTHEAST ILLINOIS

CITY           SKY/WX    TMP DP  RH WIND       PRES   REMARKS
CHICAGO-OHARE  CLEAR     36  29  75 N7        29.94R WCI  30
CHICAGO-MIDWAY PTCLDY    41  28  60 NE8       29.93R
AURORA         CLEAR     35  27  72 NE8       29.94R WCI  29
LANSING*       CLEAR     39  30  70 NE6       29.92R WCI  35
JOLIET*        CLEAR     37  32  83 N5        29.93R WCI  33
WAUKEGAN       CLEAR     36  30  79 N6        29.96R WCI  31
DUPAGE AIRPORT CLEAR     30  26  85 N7        29.93R WCI  23
KANKAKEE*      CLEAR     36  33  90 N5        29.91R WCI  32
WHEELING       CLEAR     36  29  75 N6        29.96R WCI  31
MORRIS*        CLEAR     35  31  86 N3        29.89F
ROMEOVILLE*    CLEAR     36  30  80 N8        29.92R WCI  29
NORTHERLY ISL    N/A     40  32  73 N12         N/A
$$

LMZ740>746-261200-
SOUTHERN LAKE MICHIGAN

STATION/POSITION SKY/WX   TEMP    WIND        PRES    VSBY  WAVE
                          AIR SEA DIR/SP/G                  HT/PER
                          (F)     (DEG/KT/KT) (MB)    (MI)  (FT/S)
HARRISON CRIB              40      30/ 14/ 16   N/A
BURNHAM HARBOR             40      20/ 10/ 14   N/A
CALUMET HARBOR             42      10/ 12/ 17   N/A
BURNS HARBOR               43      40/ 18/ 21 1012.9R
MICHIGAN CITY              42      30/ 17/ 19   N/A
MICHIGAN CITY 6N           42 45   70/ 16/ 19   N/A           4/ 6
$$

ILZ025>027-034>036-040-047-049-050-058-095>099-261200-
WEST-CENTRAL ILLINOIS

CITY           SKY/WX    TMP DP  RH WIND       PRES   REMARKS
QUINCY         CLEAR     39  35  86 NE8       29.92R WCI  33
GALESBURG*     PTCLDY    33  31  92 N9        29.93R WCI  25
MACOMB*        PTCLDY    37  32  81 NE8       29.95R WCI  31
JACKSONVILLE*  CLEAR     44  37  76 NE7       29.90R
PITTSFIELD*    CLOUDY    45  38  77 NE8       29.91R
$$

ILZ028>032-037-038-041>044-048-051>054-059>061-261200-
CENTRAL ILLINOIS

CITY           SKY/WX    TMP DP  RH WIND       PRES   REMARKS
PONTIAC        CLEAR    N/A N/A N/A N8        29.91R
BLOOMINGTON    CLEAR     37  32  82 N7        29.91R WCI  31
DECATUR        CLOUDY    41  36  82 NE13      29.88R
PEORIA         CLEAR     39  30  70 N3        29.92R
LACON*         CLEAR     34  29  83 CALM      29.93R
LINCOLN*       CLOUDY    41  35  80 N9        29.90R
SPRINGFIELD    CLEAR     40  36  86 NE9       29.89R
TAYLORVILLE    MOCLDY    41  36  81 NE12      29.88R
$$

ILZ033-039-045-046-055>057-062-063-261200-
EAST-CENTRAL ILLINOIS

CITY           SKY/WX    TMP DP  RH WIND       PRES   REMARKS
CHAMPAIGN      MOCLDY    38  36  92 N8        29.87R FOG     WCI  32
DANVILLE*      CLEAR     37  34  92 N8        29.84R WCI  30
RANTOUL*       CLEAR     39  36  89 N10       29.88R FOG     WCI  32
MATTOON        PTCLDY    41  36  82 NE10      29.85R
PARIS*         CLEAR     40  35  81 N5        29.87R
$$

ILZ079-100>102-261200-
SOUTHWEST ILLINOIS

CITY           SKY/WX    TMP DP  RH WIND       PRES   REMARKS
ALTON          CLOUDY    46  43  87 NE5       29.87R
BELLEVILLE     CLOUDY    47  47  98 N6        29.84R
CAHOKIA*       CLOUDY    48  43  82 N12       29.86R
SPARTA*        CLOUDY    46  45  97 N8        29.84R FOG
$$

ILZ064>066-069>071-074>076-080>082-084>086-088>090-092>094-261200-
SOUTH-CENTRAL ILLINOIS

CITY           SKY/WX    TMP DP  RH WIND       PRES   REMARKS
CARBONDALE     CLOUDY    49  45  86 N12       29.81R
CAIRO*         CLOUDY    51  48  90 N9        29.78R
EFFINGHAM*     CLOUDY    45  33  62 N5        29.87R
MARION         CLOUDY    50  46  87 N10       29.81R
MT. VERNON     CLOUDY    46  39  76 N5        29.83R
CENTRALIA*     CLOUDY    46  41  84 N9        29.84R
SALEM*         CLOUDY    48  42  80 NE12      29.83R
METROPOLIS*    CLOUDY    50  50 100 N9        29.77R
$$

ILZ067-068-072-073-078-083-087-091-261200-
SOUTHEAST ILLINOIS

CITY           SKY/WX    TMP DP  RH WIND       PRES   REMARKS
LAWRENCEVILLE  CLOUDY    46  38  73 N14       29.82R
FLORA*         CLOUDY    46  40  78 N7        29.84R
FAIRFIELD*     CLOUDY    47  43  86 N8        29.81R
HARRISBURG*    CLOUDY    48  46  93 NE9       29.81R
ROBINSON*      CLOUDY    44  36  72 N13       29.84R
CARMI*         CLOUDY    48  41  77 N8        29.80R
$$

ABBREVIATIONS USED IN REMARKS
   TC - TEMPERATURE IN CELSIUS
  WCI - WIND CHILL INDEX
   HX - HEAT INDEX
  VSB - VISIBILITY
$$



USA.gov is the U.S. government's official web portal to all federal, state and local government web resources and services.